Flag for Portugal Weather past 2 weeks in Vila Nova de Gaia, Portugal

54 °F

Light rain. Partly cloudy.

Feels Like: 50 °F
Forecast: 52 / 63 °F
Wind: 10 mph from Southeast

Location: Porto / Pedras Rubras

Current Time: Dec 2, 2015 at 2:35:27 AM

Latest Report: Dec 2, 2015 at 2:00 AM

Visibility: N/A

Pressure: 30.36 "Hg

Humidity: 72%

Dew point: 45 °F

Location of Vila Nova de GaiaLocation

Historic Weather in Vila Nova de Gaia — Graph


Vila Nova de Gaia temperature yesterday

Maximum temperature yesterday: 59 °F (at 2:30 PM)
Minimum temperature yesterday: 45 °F (at 7:00 AM)
Average temperature yesterday: 51 °F

Past Weeks' High & Low Weather Summary

High66 °F (Nov 18, 12:30 PM)100% (Nov 18, 7:00 PM)30.57 "Hg (Nov 18, 7:00 PM)
Low37 °F (Nov 23, 6:00 AM)47% (Nov 23, 11:30 AM)30.01 "Hg (Nov 22, 3:00 PM)
Average53 °F84%30.35 "Hg
* Reported Nov 17 1:00 AM — Dec 2 1:30 AM, Vila Nova de Gaia, Weather by CustomWeather, © 2015

Note: Actual official high and low records may vary slightly from our data, if they occured in-between our weather recording intervals... More about our weather records


Vila Nova de Gaia weather history for previous 24 hours

Time TempWeatherWind HumidityBarometerVisibility
1:30 AM
Wed, Dec 2
54 °FPartly cloudy.10 mph72%30.36 "HgN/A
1:00 AM54 °FPassing clouds.10 mph72%30.36 "HgN/A
12:30 AM54 °FPassing clouds.9 mph72%30.36 "HgN/A
12:00 AM54 °FPassing clouds.9 mph67%30.39 "HgN/A
11:30 PM
Tue, Dec 1
52 °FPassing clouds.9 mph72%30.39 "HgN/A
11:00 PM52 °FPassing clouds.9 mph72%30.39 "HgN/A
10:00 PM52 °FPassing clouds.9 mph72%30.39 "HgN/A
9:30 PM54 °FPassing clouds.8 mph67%30.39 "HgN/A
9:00 PM54 °FPassing clouds.10 mph67%30.39 "HgN/A
8:30 PM54 °FPassing clouds.10 mph67%30.39 "HgN/A
8:00 PM54 °FPartly cloudy.12 mph67%30.39 "HgN/A
7:30 PM54 °FPassing clouds.10 mph67%30.39 "HgN/A
7:00 PM54 °FClear.9 mph67%30.39 "Hg10 mi
6:30 PM54 °FClear.9 mph67%30.39 "Hg10 mi
6:00 PM54 °FClear.9 mph72%30.36 "Hg10 mi
5:30 PM54 °FClear.10 mph72%30.36 "Hg10 mi
5:00 PM55 °FSunny.9 mph67%30.36 "Hg10 mi
4:30 PM57 °FSunny.7 mph67%30.36 "Hg10 mi
4:00 PM57 °FSunny.8 mph63%30.36 "Hg10 mi
3:30 PM59 °FPassing clouds.8 mph63%30.36 "HgN/A
3:00 PM59 °FPassing clouds.9 mph59%30.36 "HgN/A
2:30 PM59 °FPassing clouds.9 mph63%30.36 "HgN/A
2:00 PM57 °FPassing clouds.9 mph63%30.39 "HgN/A
1:30 PM55 °FScattered clouds.12 mph67%30.39 "HgN/A
1:00 PM55 °FPartly sunny.12 mph63%30.42 "HgN/A
12:30 PM55 °FPassing clouds.12 mph63%30.42 "HgN/A
12:00 PM54 °FSunny.13 mph63%30.42 "Hg10 mi
11:30 AM54 °FSunny.13 mph63%30.45 "Hg10 mi
11:00 AM54 °FSunny.16 mph58%30.45 "Hg10 mi
10:30 AM52 °FSunny.15 mph62%30.45 "Hg10 mi
10:00 AM50 °FPassing clouds.15 mph62%30.45 "HgN/A
9:30 AM48 °FSunny.14 mph66%30.45 "Hg10 mi
9:00 AM48 °FSunny.15 mph66%30.45 "Hg10 mi
8:00 AM46 °FSunny.14 mph71%30.45 "Hg10 mi
7:30 AM46 °FClear.14 mph71%30.45 "Hg10 mi
7:00 AM45 °FClear.14 mph76%30.42 "Hg10 mi
6:30 AM46 °FClear.14 mph71%30.42 "Hg10 mi
6:00 AM46 °FClear.16 mph71%30.42 "Hg10 mi
5:30 AM46 °FClear.14 mph71%30.42 "Hg10 mi
5:00 AM46 °FClear.14 mph71%30.42 "Hg10 mi
4:30 AM46 °FClear.12 mph71%30.45 "Hg10 mi
4:00 AM46 °FClear.13 mph71%30.45 "Hg10 mi
3:30 AM46 °FClear.13 mph71%30.45 "Hg10 mi
3:00 AM46 °FClear.14 mph76%30.45 "Hg10 mi
2:30 AM46 °FClear.13 mph76%30.45 "Hg10 mi
2:00 AM48 °FClear.10 mph71%30.45 "Hg10 mi
Weather by CustomWeather, © 2015

See weather overviewHow to use our weather pages